sat.trackr.live / text

‹ back to catalog

UNKNOWN

NORAD 87448

UNKNOWN UNKNOWN UNKNOWN

§ Identity

Operator
Country
Launch date
Launch site
Launch vehicle
Mass (kg)
RCS (m²)

External: N2YO · Heavens-Above

§ Orbital elements

Epoch: 2026-05-24T02:02:22.547616Z

Period
103.52 min
Inclination
100.4454°
Eccentricity
0.0062631
Mean motion
13.91075599 rev/d
Perigee alt
879.1 km
Apogee alt
970.6 km
Semi-major
7,303.0 km
B*
8.3284e-4
RAAN
15.6587°
Arg perigee
141.4431°
Mean anomaly
219.1222°
Rev number
63,180

§ Raw data

UNKNOWN1 87448U          26144.08498319  .00001009  00000+0  83284-3 0  99972 87448 100.4454  15.6587 0062631 141.4431 219.1222 13.91075599631805

JSON: /api/v1/satellites/87448 · /tle

For live sub-satellite position, see the globe view (requires WebGL).

§ Visibility from observer

Set your observer location to see the next 7 days of passes ≥ 10°. The values pass through the URL so the page stays shareable.

No JS? Fill the form by hand. The geolocation button needs JavaScript.